Weather History for St. Augustine, FL

Change the Weather History Date:

Friday, January 1, 2010

  Actual Average Record
Temperature  
Mean Temperature 54 °F -  
Max Temperature 64 °F 62 °F 83 °F (1989)
Min Temperature 44 °F 44 °F 26 °F (2001)
Degree Days  
Heating Degree Days 10    
Growing Degree Days 4 (Base 50)    
Moisture  
Dew Point 54 °F    
Average Humidity 92    
Maximum Humidity 100    
Minimum Humidity 76    
Precipitation  
Precipitation 0.60 in - - ()
Sea Level Pressure  
Sea Level Pressure 30.02 in    
Wind  
Wind Speed 8 mph (NNW)    
Max Wind Speed 20 mph    
Max Gust Speed 25 mph    
Visibility 7 miles    
Events Rain    
Averages and records for this station are not official NWS values.
T = Trace of Precipitation, MM = Missing Value Source: NWS Daily Summary

Daily Weather History Graph

Daily Weather History Graph

Search for Another Location

Airport:

Trip Planner

Search our weather history database for the weather conditions in past years. The results will help you decide how hot, cold, wet, or windy it might be!

Date:

Astronomy

Jan. 01, 2010 Rise Set
Actual Time 7:21 AM EST 5:36 PM EST
Civil Twilight 6:54 AM EST 6:03 PM EST
Nautical Twilight 6:25 AM EST 6:32 PM EST
Astronomical Twilight 5:56 AM EST 7:02 PM EST
Moon 6:52 PM EST (1/1) 8:06 AM EST (1/1)
Length of Visible Light 11h 08m
Length of Day
10h 15m
Full, 99% of the Moon is Illuminated
Jan 1
Full
Jan 7
Last Quarter
Jan 15
New
Jan 23
First Quarter
Jan 30
Full

Hourly Weather History & Observations

Time (EST) Temp. Windchill Dew Point Humidity Pressure Visibility Wind Dir Wind Speed Gust Speed Precip Events Conditions
12:58 AM 64.9 °F - 62.1 °F 90% 30.06 in 10.0 mi West 4.6 mph - N/A   Scattered Clouds
1:57 AM 64.4 °F - 62.6 °F 94% 30.04 in 10.0 mi WSW 4.6 mph - N/A   Overcast
2:42 AM 64.4 °F - 60.8 °F 88% 30.03 in 10.0 mi West 5.8 mph - N/A   Overcast
2:58 AM 64.4 °F - 62.6 °F 94% 30.03 in 10.0 mi West 4.6 mph - N/A   Overcast
3:01 AM 64.9 °F - 62.1 °F 90% 30.02 in 10.0 mi West 5.8 mph - N/A   Overcast
3:52 AM 64.4 °F - 62.6 °F 94% 30.02 in 10.0 mi West 5.8 mph - N/A   Overcast
3:58 AM 64.0 °F - 62.1 °F 93% 30.02 in 10.0 mi WNW 4.6 mph - 0.00 in Rain Light Rain
4:30 AM 64.4 °F - 62.6 °F 94% 30.00 in 10.0 mi Calm Calm - 0.02 in Rain Light Rain
4:50 AM 62.6 °F - 62.6 °F 100% 30.00 in 10.0 mi WNW 3.5 mph - 0.02 in Rain Light Rain
4:58 AM 62.6 °F - 62.6 °F 100% 30.00 in 10.0 mi WNW 5.8 mph - 0.02 in Rain Light Rain
5:29 AM 62.6 °F - 62.6 °F 100% 29.99 in 10.0 mi North 4.6 mph - 0.04 in Rain Light Rain
5:52 AM 62.6 °F - 60.8 °F 94% 29.99 in 9.0 mi North 3.5 mph - 0.05 in Rain Light Rain
5:58 AM 62.1 °F - 61.0 °F 96% 29.99 in 9.0 mi NNE 4.6 mph - 0.05 in Rain Light Rain
6:19 AM 60.8 °F - 60.8 °F 100% 29.99 in 3.0 mi NNE 8.1 mph - 0.00 in Rain Light Rain
6:58 AM 59.0 °F - 57.2 °F 94% 29.98 in 2.0 mi NE 8.1 mph - 0.02 in   Overcast
7:58 AM 59.0 °F - 57.9 °F 96% 29.96 in 2.0 mi East 6.9 mph - 0.02 in   Overcast
8:02 AM 59.0 °F - 57.2 °F 94% 29.96 in 1.0 mi East 5.8 mph - N/A   Overcast
8:58 AM 59.0 °F - 57.9 °F 96% 30.00 in 1.0 mi North 11.5 mph - 0.02 in Rain Light Rain
9:02 AM 57.2 °F - 57.2 °F 100% 30.00 in 10.0 mi North 10.4 mph - 0.00 in Rain Light Rain
9:16 AM 57.2 °F - 55.4 °F 94% 30.01 in 2.0 mi North 13.8 mph - 0.00 in Rain Light Rain
9:49 AM 55.4 °F - 55.4 °F 100% 30.01 in 2.0 mi North 11.5 mph - 0.06 in Rain Rain
9:53 AM 55.4 °F - 55.4 °F 100% 30.02 in 2.0 mi North 10.4 mph - 0.07 in Rain Light Rain
9:58 AM 55.9 °F - 55.0 °F 97% 30.01 in 2.0 mi North 11.5 mph - 0.10 in Rain Rain
10:02 AM 55.4 °F - 55.4 °F 100% 30.01 in 1.0 mi North 15.0 mph - 0.04 in Rain Heavy Rain
10:58 AM 52.0 °F - 51.1 °F 97% 30.06 in 1.0 mi NNW 15.0 mph 23.0 mph 0.22 in Rain Rain
11:02 AM 51.8 °F - 51.8 °F 100% 30.06 in 2.0 mi NNW 17.3 mph 23.0 mph 0.01 in Rain Rain
11:10 AM 51.8 °F - 50.0 °F 94% 30.06 in 2.0 mi NNW 17.3 mph 25.3 mph 0.03 in Rain Rain
11:16 AM 51.8 °F - 50.0 °F 94% 30.05 in 2.0 mi NNW 18.4 mph 25.3 mph 0.04 in Rain Rain
11:22 AM 51.8 °F - 48.2 °F 88% 30.05 in 2.0 mi NNW 17.3 mph 25.3 mph 0.06 in Rain Rain
11:40 AM 51.8 °F - 48.2 °F 88% 30.06 in 2.0 mi NW 15.0 mph 20.7 mph 0.13 in Rain Light Rain
11:58 AM 50.0 °F - 48.0 °F 93% 30.01 in 2.0 mi North 19.6 mph 23.0 mph 0.15 in Rain Light Rain
12:02 PM 50.0 °F - 48.2 °F 94% 30.00 in 10.0 mi North 17.3 mph 23.0 mph 0.01 in Rain Light Rain
12:58 PM 50.0 °F - 48.0 °F 93% 30.00 in 10.0 mi North 8.1 mph - 0.03 in Rain Light Rain
1:58 PM 50.0 °F - 48.0 °F 93% 29.99 in 10.0 mi NNW 10.4 mph - 0.01 in Rain Light Rain
2:51 PM 51.8 °F - 48.2 °F 88% 29.99 in 10.0 mi NNW 9.2 mph - 0.00 in   Overcast
2:58 PM 51.8 °F - 48.2 °F 88% 29.99 in 10.0 mi NW 9.2 mph - 0.00 in   Overcast
3:01 PM 51.1 °F - 48.9 °F 92% 29.99 in 10.0 mi NW 10.4 mph - 0.00 in   Overcast
3:31 PM 53.6 °F - 48.2 °F 82% 29.98 in 10.0 mi WNW 6.9 mph - N/A   Scattered Clouds
3:58 PM 54.0 °F - 48.0 °F 80% 29.99 in 10.0 mi NW 9.2 mph - N/A   Partly Cloudy
5:58 PM 51.1 °F - 48.0 °F 89% 30.03 in 10.0 mi WNW 5.8 mph - N/A   Scattered Clouds
6:58 PM 51.1 °F - 45.0 °F 80% 30.06 in 10.0 mi NW 9.2 mph - N/A   Clear
7:58 PM 50.0 °F - 44.1 °F 80% 30.09 in 10.0 mi NW 10.4 mph - N/A   Clear
8:58 PM 48.0 °F - 42.1 °F 80% 30.10 in 10.0 mi WNW 6.9 mph - N/A   Clear
9:58 PM 46.0 °F 42.5 °F 41.0 °F 83% 30.11 in 10.0 mi WNW 6.9 mph - N/A   Clear
10:58 PM 45.0 °F 41.2 °F 39.9 °F 82% 30.13 in 10.0 mi WNW 6.9 mph - N/A   Clear
11:58 PM 44.1 °F 40.1 °F 37.0 °F 76% 30.12 in 10.0 mi NW 6.9 mph - N/A   Clear